Location: ???? ??????
(30.6000°N, 60.4167°E)
Time: 06:29:09
(UTC+00:00)

Daily predictions for brighter satellites

Satellite Brightness Start Highest point End
(mag) Time Altitude Azimuth Time Altitude Azimuth Time Altitude Azimuth
ADEOS Rocket 3.3 14:37:11 10° N 14:43:12 70° WNW 14:48:45 10° SSW
CZ-4 R/B 1.7 14:42:14 10° S 14:46:03 67° WSW 14:49:53 10° NNW
Cosmos 1939 Rocket 2.8 14:42:32 10° SSE 14:46:27 90° N 14:50:21 10° N
Cosmos 1470 4.0 14:43:24 10° SSW 14:47:08 47° W 14:50:55 10° N
STARLINK-1144 3.6 14:43:14 10° NW 14:47:23 74° NE 14:51:30 10° SE
NOAA 11 4.4 14:42:24 10° S 14:47:48 77° WSW 14:53:17 10° NNW
SL-24 R/B - RUBIN 2 4.2 14:44:01 10° S 14:49:03 56° ESE 14:54:48 10° NE
Cosmos 1992 Rocket 4.3 14:45:39 10° N 14:50:37 45° ENE 14:55:34 10° SE
Cosmos 1953 2.2 14:47:49 10° S 14:51:46 75° E 14:55:43 10° N
Aureole 3 3.9 14:47:35 10° S 14:51:55 85° E 14:57:32 10° N
STARLINK-1103 3.6 14:48:13 10° NW 14:52:22 83° NE 14:56:29 10° SE
STARLINK-29 3.9 14:51:43 10° WSW 14:54:48 50° NW 14:57:55 10° NNE
STARLINK-1101 3.6 14:53:11 10° NW 14:57:20 87° SW 15:01:28 10° SE
SEDSat Delta rocket 3.4 14:53:45 10° W 14:59:17 83° SSW 15:03:37 13° ESE
STARLINK-1102 3.7 14:58:11 10° NW 15:02:19 77° SW 15:06:27 10° SE
YAOGAN 1 3.3 14:58:21 10° S 15:02:36 58° W 15:06:52 10° NNW
Cosmos 292 Rocket 3.7 15:00:22 10° NNW 15:05:11 76° ENE 15:10:00 10° SSE
STARLINK-1111 3.9 15:03:08 10° NW 15:07:15 68° SW 15:11:21 10° SSE
STARLINK-1073 4.1 15:08:09 10° NW 15:12:14 60° SW 15:16:17 10° SSE
ATLAS 5 CENTAUR R/B 1.4 15:09:09 10° SSW 15:13:08 87° WNW 15:17:25 10° NNE
Cosmos 2184 Rocket 4.2 15:10:55 10° N 15:16:58 50° E 15:22:55 10° SSE
STARLINK-1121 4.3 15:13:10 10° NW 15:17:11 53° SW 15:21:08 10° SSE
Aureole 1 Rocket 4.3 15:11:02 10° S 15:19:08 79° ESE 15:25:44 10° NNE
ISS -3.4 15:17:10 10° NW 15:20:30 63° SW 15:22:51 18° SSE
Cosmos 2058 Rocket 3.7 15:17:15 10° SSE 15:21:18 33° E 15:25:21 10° NNE
STARLINK-1106 4.5 15:18:11 10° NW 15:22:09 46° SW 15:25:56 11° SSE
Meteor 1-16 Rocket 4.2 15:16:57 10° S 15:22:17 85° W 15:27:49 10° N
Nadezhda 1 Rocket 4.0 15:20:08 10° S 15:26:25 62° E 15:32:41 10° NNE
Cosmos 1726 Rocket 3.5 15:22:39 10° S 15:26:59 68° E 15:31:23 10° NNE
USA 234 3.6 15:22:35 10° ENE 15:28:39 40° SE 15:34:42 10° SSW
H-2A R/B 2.1 15:24:07 10° SSE 15:29:17 61° ENE 15:34:21 10° N
ATLAS 2AS CENTAUR R/B 3.6 15:23:30 10° N 15:30:03 33° NE 15:33:29 22° E
Cosmos 1437 2.4 15:30:46 10° N 15:33:46 90° NNW 15:35:33 22° S
Cosmos 1943 Rocket 3.1 15:28:44 10° NNW 15:34:04 49° WSW 15:39:26 10° S
SJ-6B 3.3 15:33:40 28° SE 15:35:22 43° ENE 15:39:17 10° N
CZ-3A R/B 4.3 15:00:36 10° W 15:36:01 48° SSW 15:42:19 17° SE
CZ-2C R/B 2.8 15:32:47 12° SSE 15:37:19 66° ENE 15:42:04 10° N
Resurs 01 Rocket 3.5 15:39:13 14° NE 15:39:13 14° NE 15:40:49 10° NNE
Cosmos 2154 Rocket 4.2 15:33:41 10° N 15:39:47 48° E 15:43:53 20° SSE
OAO 1 4.5 15:36:00 10° WSW 15:41:32 87° SSE 15:44:57 24° ENE
Cosmos 2228 3.5 15:38:09 10° SSW 15:42:21 61° W 15:46:38 10° N
Cosmos 1825 Rocket 3.4 15:38:37 10° N 15:42:59 87° ENE 15:46:36 15° S
FREGAT/IRIS 2.2 15:43:45 76° S 15:43:55 88° WSW 15:46:38 10° NNW
GPS 2-04 Rocket1 2.9 15:40:06 10° SW 15:44:01 52° SSE 15:44:50 44° ESE
Ariane Rocket 3.1 15:40:09 10° S 15:45:13 78° WSW 15:50:17 10° NNW
Cosmos 1140 Rocket 3.5 15:41:43 10° SSW 15:46:55 85° WNW 15:52:07 10° NNE
Cosmos 2369 Rocket 2.9 15:41:32 10° NNW 15:47:01 52° WSW 15:52:25 10° S
Cosmos 1300 4.5 15:50:42 19° NE 15:50:42 19° NE 15:52:05 10° NNE
OE (NEXTSAT) 4.2 15:46:09 10° SW 15:49:38 81° SE 15:50:09 62° ENE
MOS 1 4.2 15:45:27 14° SSE 15:50:23 83° ENE 15:56:04 10° NNW
MINOTAUR IV R/B 4.5 15:51:52 10° SSW 15:56:20 90° NE 16:00:49 10° NNE
Cosmos 1758 Rocket 4.4 15:52:59 10° NNW 15:57:08 48° W 16:01:16 10° SSW
USA 186 2.6 15:57:53 30° SSW 15:59:11 50° W 16:02:22 10° NNW
Hubble Space Telescope 0.8 15:55:45 10° WSW 15:59:48 59° S 15:59:52 59° SSE
CZ-3 Stage 3 4.3 15:53:09 10° W 16:00:13 90° N 16:53:13 10° E
Cosmos 2074 Rocket 4.4 15:54:01 10° NNW 16:00:14 65° W 16:06:26 10° S
Cosmos 1340 Rocket 3.2 15:57:36 10° SSW 16:01:37 62° W 16:05:37 10° N
Cosmos 1953 Rocket 3.6 16:00:50 10° N 16:05:19 78° W 16:07:04 37° S
Cosmos 1703 3.9 16:05:52 10° NNW 16:09:44 55° W 16:11:03 36° SSW
MetOp-A 4.0 16:11:52 56° SE 16:12:53 70° ENE 16:18:13 10° N
APEX 3.8 16:08:59 10° NNW 16:14:53 70° ENE 16:15:14 67° E
Cosmos 1656 Rocket 3.9 16:10:05 10° NNW 16:15:38 66° WSW 16:17:54 35° S
DMSP B5D2-2 4.1 16:10:49 10° N 16:16:03 77° WNW 16:21:17 10° SSW
BREEZE-M DEB 4.3 16:01:01 10° NW 16:19:21 86° SW 16:21:01 51° SE
ARGOS 4.0 16:16:57 16° S 16:21:03 48° W 16:26:16 10° NNW
CZ-2C R/B 2.6 16:18:54 10° N 16:24:05 77° WNW 16:27:32 22° SSW
SL-8 R/B 4.1 16:19:53 10° WNW 16:24:31 53° SW 16:24:36 52° SW
Cosmos 1295 Rocket 4.5 16:24:05 10° N 16:30:25 82° W 16:32:29 46° S
GEOS 3 Rocket 4.4 16:29:25 36° SSW 16:30:46 43° WSW 16:35:40 10° NW
SPOT 3 Rocket 3.7 16:32:20 58° SSW 16:33:07 67° WSW 16:38:18 10° NNW
COSMOS 2455 3.2 16:38:12 10° NNW 16:43:12 53° NNE 16:43:12 53° NNE
NOSS 3-4 (A) 3.9 16:41:43 10° NNW 16:49:05 80° WSW 16:50:18 66° S
NOSS 3-4 (C) 3.9 16:41:50 10° NNW 16:49:12 81° WSW 16:50:22 67° S
Cosmos 2341 Rocket 4.2 16:52:33 10° NNW 16:58:53 66° W 16:59:13 65° WSW
USA 234 4.1 17:05:26 10° NNE 17:11:35 45° NW 17:17:43 10° WSW
Resurs 01 Rocket 4.0 17:16:46 21° NW 17:16:46 21° NW 17:18:29 10° NNW
ATLAS 2AS CENTAUR R/B 3.6 17:14:21 10° NW 17:20:57 41° WSW 17:20:57 41° WSW
CENTAUR R/B 3.7 22:25:09 35° NE 22:25:09 35° NE 22:28:52 10° NNE
Cosmos 2297 Rocket 4.2 22:40:07 21° N 22:40:07 21° N 22:42:03 10° N
NOSS 3-2 (C) 4.5 22:55:10 35° N 22:55:10 35° N 22:59:06 10° NNE
Cosmos 2227 Rocket 4.0 23:06:13 20° NNW 23:06:13 20° NNW 23:08:21 10° N
ADEOS II 4.1 22:58:56 10° N 23:00:29 18° NNW 23:00:29 18° NNW
IDEFIX/ARIANE 42P 2.8 23:10:47 10° NNE 23:15:26 68° NE 23:15:26 68° NE
CZ-4B R/B 4.2 23:16:32 16° E 23:17:47 19° ENE 23:20:19 10° NNE
ARIANE 5 R/B 4.1 23:13:09 10° N 23:15:31 25° NNW 23:15:31 25° NNW
ATLAS 3B R/B 2.4 23:20:36 73° W 23:20:54 75° WNW 23:27:33 10° NNE
PSLV R/B 4.5 23:22:02 10° NNE 23:26:15 45° E 23:26:38 44° ESE
USA 267 3.9 23:20:27 10° NNE 23:26:23 39° NW 23:27:08 37° NW
Nadezhda 4 Rocket 4.0 23:24:46 50° S 23:26:34 81° E 23:32:55 10° N
Okean 2 Rocket 3.5 23:22:56 10° N 23:27:24 60° E 23:27:26 60° E
MSX 4.0 23:23:24 10° NNE 23:29:10 69° ESE 23:31:09 41° S
Cosmos 2279 Rocket 4.0 23:29:04 10° NNW 23:35:02 58° W 23:35:02 58° W
Meteor 1-4 Rocket 3.9 23:38:48 36° N 23:38:48 36° N 23:41:08 10° N
ADEOS 4.4 23:34:26 10° NNE 23:39:29 48° E 23:43:10 18° S
SL-16 R/B 2.0 23:40:37 10° NNW 23:46:17 81° WSW 23:51:56 10° SSE
Meteor 1-13 Rocket 4.1 23:46:09 49° SSW 23:47:41 73° W 23:53:21 10° N
Gbstr 26 Del rocket 3.8 23:46:17 51° WSW 23:47:59 76° NW 23:53:34 10° NE
Cosmos 494 Rocket 3.8 23:44:17 10° NNW 23:49:33 78° WSW 23:54:47 10° S
